Weather History for Lamar, CO

Change the Weather History Date:

Sunday, March 10, 2013

  Actual Average Record
Temperature  
Mean Temperature 30 °F 40 °F  
Max Temperature 39 °F 57 °F 88 °F (1989)
Min Temperature 20 °F 24 °F -23 °F (1948)
Degree Days  
Heating Degree Days 35 24  
Month to date heating degree days 237 261  
Since 1 July heating degree days 4336 4572  
Cooling Degree Days 0 0  
Month to date cooling degree days 0 0  
Year to date cooling degree days 0 0  
Moisture  
Dew Point 17 °F    
Average Humidity 59    
Maximum Humidity 84    
Minimum Humidity 34    
Precipitation  
Precipitation 0.00 in 0.04 in 0.50 in (1974)
Month to date precipitation 0.04 0.27  
Year to date precipitation 0.16 0.94  
Sea Level Pressure  
Sea Level Pressure 30.11 in    
Wind  
Wind Speed 15 mph (NW)    
Max Wind Speed 32 mph    
Max Gust Speed 39 mph    
Visibility 10 miles    
Events      
T = Trace of Precipitation, MM = Missing Value Source: NWS Daily Summary

Daily Weather History Graph

Daily Weather History Graph

Search for Another Location

Airport:

Trip Planner

Search our weather history database for the weather conditions in past years. The results will help you decide how hot, cold, wet, or windy it might be!

Date:

Astronomy

Mar. 10, 2013 Rise Set
Actual Time 7:08 AM MDT 6:53 PM MDT
Civil Twilight 6:42 AM MDT 7:19 PM MDT
Nautical Twilight 6:12 AM MDT 7:50 PM MDT
Astronomical Twilight 5:41 AM MDT 8:20 PM MDT
Moon 6:09 AM MDT (3/10) 6:03 PM MDT (3/10)
Length of Visible Light 12h 36m
Length of Day
11h 44m
Waning Crescent, 1% of the Moon is Illuminated
Mar 10
Waning Crescent
Mar 11
New
Mar 19
First Quarter
Mar 27
Full
Apr 2
Last Quarter

Hourly Weather History & Observations

Time (MDT) Temp. Windchill Dew Point Humidity Pressure Visibility Wind Dir Wind Speed Gust Speed Precip Events Conditions
12:53 AM 30.9 °F 17.2 °F 19.9 °F 64% 30.03 in 10.0 mi North 25.3 mph 32.2 mph N/A   Mostly Cloudy
3:53 AM 27.0 °F 14.3 °F 18.0 °F 69% 30.06 in 10.0 mi NNW 17.3 mph 29.9 mph N/A   Clear
4:53 AM 25.0 °F 12.2 °F 17.1 °F 72% 30.07 in 10.0 mi NNW 16.1 mph - N/A   Clear
6:53 AM 25.0 °F 13.1 °F 18.0 °F 75% 30.11 in 10.0 mi NNW 13.8 mph - N/A   Clear
7:53 AM 21.0 °F 11.4 °F 16.0 °F 81% 30.13 in 10.0 mi West 8.1 mph - N/A   Clear
8:53 AM 25.0 °F 15.5 °F 19.9 °F 81% 30.14 in 10.0 mi West 9.2 mph - N/A   Partly Cloudy
9:53 AM 28.9 °F 19.2 °F 21.0 °F 72% 30.14 in 10.0 mi WNW 11.5 mph - N/A   Clear
10:53 AM 30.9 °F 16.9 °F 19.9 °F 64% 30.14 in 10.0 mi North 26.5 mph 34.5 mph N/A   Partly Cloudy
11:53 AM 32.0 °F 17.9 °F 19.9 °F 61% 30.15 in 10.0 mi North 28.8 mph 34.5 mph N/A   Overcast
12:53 PM 33.1 °F 20.1 °F 18.0 °F 54% 30.14 in 10.0 mi North 25.3 mph 33.4 mph N/A   Mostly Cloudy
1:53 PM 36.0 °F 25.0 °F 18.0 °F 48% 30.12 in 10.0 mi North 20.7 mph 33.4 mph N/A   Scattered Clouds
2:53 PM 37.9 °F 27.1 °F 18.0 °F 45% 30.09 in 10.0 mi North 23.0 mph 31.1 mph N/A   Partly Cloudy
3:53 PM 39.0 °F 28.8 °F 14.0 °F 36% 30.09 in 10.0 mi North 21.9 mph 31.1 mph N/A   Clear
4:53 PM 39.0 °F 30.3 °F 14.0 °F 36% 30.09 in 10.0 mi North 16.1 mph 25.3 mph N/A   Clear
5:53 PM 37.0 °F 27.4 °F 12.0 °F 36% 30.08 in 10.0 mi North 17.3 mph 24.2 mph N/A   Clear
6:53 PM 33.1 °F 26.1 °F 14.0 °F 46% 30.11 in 10.0 mi North 8.1 mph - N/A   Clear
7:53 PM 28.9 °F 21.1 °F 16.0 °F 58% 30.14 in 10.0 mi WNW 8.1 mph - N/A   Clear
8:53 PM 28.0 °F 20.0 °F 17.1 °F 63% 30.14 in 10.0 mi West 8.1 mph - N/A   Clear
9:53 PM 26.1 °F 20.5 °F 17.1 °F 69% 30.13 in 10.0 mi West 4.6 mph - N/A   Clear
10:53 PM 24.1 °F 16.0 °F 17.1 °F 75% 30.12 in 10.0 mi SW 6.9 mph - N/A   Clear
11:53 PM 19.9 °F 13.4 °F 16.0 °F 85% 30.11 in 10.0 mi SW 4.6 mph - N/A   Clear
12:53 AM 21.9 °F 14.5 °F 16.0 °F 78% 30.09 in 10.0 mi SW 5.8 mph - N/A   Clear